Regional Weather Roundup
Issued by NWS

Home | Current Version | Previous Version | Text Only | Print | Product List | Glossary On
Versions: 1 2 3 4 5 6 7 8 9 10 11 12 13 14 15 16 17 18 19 20 21 22 23 24 25 26 27 28 29 30 31 32 33 34 35 36 37 38 39 40 41 42 43 44 45 46 47 48 49 50
000
ASCA44 KEWX 051020
RWRMX

LATIN AMERICA AND CARIBBEAN REGIONAL WEATHER ROUNDUP
NATIONAL WEATHER SERVICE AUSTIN/SAN ANTONIO TX
500 AM CDT WED AUG 05 2015

NOTE: "FAIR" INDICATED FEW OR NO CLOUDS BELOW 12,000 FEET WITH NO
SIGNIFICANT WEATHER AND/OR OBSTRUCTIONS TO VISIBILITY.

BAJA CALIFORNIA

CITY           SKY/WX    TMP DP  RH WIND       PRES   REMARKS
TIJUANA        CLEAR     66  63  88 CALM      29.94

NORTHWESTERN MEXICO

CITY           SKY/WX    TMP DP  RH WIND       PRES   REMARKS

NORTHEASTERN MEXICO

CITY           SKY/WX    TMP DP  RH WIND       PRES   REMARKS
MONTERREY      PTCLDY    75  68  78 E5        29.84F
NUEVO LAREDO   CLEAR     82  73  74 S8        29.93
REYNOSA        CLEAR     77  72  83 S6        29.94

WESTERN MEXICO

CITY           SKY/WX    TMP DP  RH WIND       PRES   REMARKS
GUADALAJARA    CLOUDY    63  57  82 SW3       30.19R
MAZATLAN       LGT RAIN  79  73  83 NE6       29.85R
P. VALLARTA    PTCLDY    79  75  89 NE3       29.86S
ZACATECAS      CLEAR     61  48  63 SE6       30.32

CENTRAL MEXICO

CITY           SKY/WX    TMP DP  RH WIND       PRES   REMARKS
MEXICO CITY    MOCLDY    63  54  72 NW6       30.36R
PUEBLA         PTCLDY    54  52  94 E3        30.34
QUERETARO      PTCLDY    61  57  88 CALM      30.32
S. LUIS POTOSI CLEAR     59  52  77 CALM      30.28
TOLUCA         PTCLDY    52  50  93 CALM      30.43

SOUTHERN MEXICO

CITY           SKY/WX    TMP DP  RH WIND       PRES   REMARKS
ACAPULCO       MOCLDY    82  77  83 N3        29.82F HX  91
OAXACA         MOCLDY    59  57  94 W5        30.23F
VERACRUZ         N/A    N/A N/A N/A MISG        N/A

YUCATAN PENINSULA

CITY           SKY/WX    TMP DP  RH WIND       PRES   REMARKS
CAMPECHE       MOCLDY    77  73  88 E12       29.93
CANCUN         PTCLDY    81  77  89 E5        29.98S
COZUMEL        PTCLDY    73  73 100 CALM      29.99R
MERIDA         PTCLDY    75  73  94 E9        29.98S
MINATITLAN     MOCLDY    79  68  69 CALM      29.86
TAPACHULA      PTCLDY    79  75  89 CALM      29.84F

CENTRAL AMERICA

CITY           SKY/WX    TMP DP  RH WIND       PRES   REMARKS
MANAGUA        MOSUNNY   81  73  78 MISG      29.80S

CARIBBEAN

CITY           SKY/WX    TMP DP  RH WIND       PRES   REMARKS
ARUBA          PTCLDY    82  77  83 E20       29.89S HX  91
CURACAO        PTCLDY    81  77  89 E13       29.92S
KINGSTON       PTCLDY    81  72  74 N10       29.94R
NASSAU         PTCLDY    82  75  78 SE6       30.11S
SAN JUAN       PTCLDY    77  75  94 E5        30.03S
SANTO DOMINGO  PTCLDY    75  73  94 NE6       30.00S
ST. CROIX      PTCLDY    77  72  83 NE6       30.03R
ST. MAARTEN    PTCLDY    81  73  78 E10       30.03R
ST. THOMAS     CLEAR     82  73  74 E8        30.02S

$$



USA.gov is the U.S. government's official web portal to all federal, state and local government web resources and services.